Location: Unspecified
(0.0000°N, 0.0000°E)
Time: 22:40:33
(UTC+02:00)

Cosmos 2369 Rocket - Visible Passes

Search period start: 25 May 2018 00:00
Search period end: 04 June 2018 00:00
Orbit: 828 x 853 km, 71.0° (Epoch: 24 May)

Date Brightness Start Highest point End Pass type
(mag) Time Alt. Az. Time Alt. Az. Time Alt. Az.
25 May 3.3 06:28:47 10° S 06:34:11 44° ESE 06:39:34 10° NE visible
26 May 3.4 06:13:40 11° S 06:18:50 41° ESE 06:24:09 10° NE visible
27 May 3.5 05:59:47 18° SSE 06:03:30 38° ESE 06:08:43 10° NE visible
28 May 3.6 05:45:51 25° SSE 05:48:09 35° ESE 05:53:16 10° NE visible
28 May 3.8 07:28:29 10° WSW 07:31:53 16° WNW 07:35:18 10° NW visible
29 May 3.6 05:31:50 30° SE 05:32:49 32° ESE 05:37:50 10° NE visible
29 May 3.7 07:13:42 13° WSW 07:16:32 18° WNW 07:20:14 10° NNW visible
30 May 3.8 05:17:46 30° E 05:17:46 30° E 05:22:22 10° NE visible
30 May 3.6 06:59:37 17° W 07:01:12 19° WNW 07:05:08 10° NNW visible
31 May 4.1 05:03:36 25° E 05:03:36 25° E 05:06:53 10° NE visible
31 May 3.5 06:45:27 21° W 06:45:51 21° WNW 06:50:00 10° NNW visible
01 Jun 4.6 04:49:24 18° ENE 04:49:24 18° ENE 04:51:24 10° NE visible
01 Jun 3.5 06:31:14 22° WNW 06:31:14 22° WNW 06:34:51 10° NNW visible
02 Jun 4.9 04:35:05 13° ENE 04:35:05 13° ENE 04:35:54 10° NE visible
02 Jun 3.7 06:16:56 21° NW 06:16:56 21° NW 06:19:41 10° NNW visible
03 Jun 4.0 06:02:34 18° NW 06:02:34 18° NW 06:04:31 10° NNW visible
